When you browse on this site, cookies collect data to enhance your experience and personalize the content and advertising you see.
Visit our Privacy Policy to learn more. By continuing to use the site, you agree to this use of cookies and data.
  • In Österreich
  • Länderverzeichnis
  • Für 7 Tage
  • Wassertemperatur
  • Satellitenkarten
  • Wetterkarte
  • News
  • Widgets
  • user-avatar
    Anmelden

    Stündliche Wetter Essen

    Heute, 17 Januar, Donnerstag

    Zeit Temperatur Niederschläge Wind Luftdruck Luftfeuchtigkeit
    00:00 +3°C° 0.8 mm 6 m/S 743 mmHg 81%
    01:00 +3°C° 0.8 mm 6 m/S 743 mmHg 83%
    02:00 +3°C° 0.8 mm 5 m/S 743 mmHg 85%
    03:00 +3°C° 0.8 mm 5 m/S 743 mmHg 86%
    04:00 +4°C° 0.1 mm 4 m/S 743 mmHg 87%
    05:00 +4°C° 0.1 mm 4 m/S 743 mmHg 87%
    06:00 +3°C° 0.1 mm 3 m/S 743 mmHg 88%
    07:00 +3°C° 0 mm 3 m/S 743 mmHg 87%
    08:00 +3°C° 0 mm 4 m/S 743 mmHg 86%
    09:00 +3°C° 0 mm 4 m/S 743 mmHg 85%
    10:00 +3°C° 0.7 mm 5 m/S 743 mmHg 84%
    11:00 +3°C° 0.7 mm 5 m/S 742 mmHg 83%
    12:00 +3°C° 0.7 mm 6 m/S 742 mmHg 82%
    13:00 +3°C° 0.6 mm 6 m/S 743 mmHg 78%
    14:00 +2°C° 0.6 mm 5 m/S 743 mmHg 75%
    15:00 +2°C° 0.6 mm 5 m/S 744 mmHg 71%
    16:00 +2°C° 0.1 mm 5 m/S 745 mmHg 69%
    17:00 +1°C° 0.1 mm 5 m/S 746 mmHg 66%
    18:00 +1°C° 0.1 mm 5 m/S 747 mmHg 64%
    19:00 +1°C° 0 mm 4 m/S 747 mmHg 65%
    20:00 0°C° 0 mm 4 m/S 748 mmHg 65%
    21:00 0°C° 0 mm 4 m/S 749 mmHg 66%
    22:00 0°C° 0 mm 4 m/S 749 mmHg 67%
    23:00 -1°C° 0 mm 4 m/S 750 mmHg 67%

    Morgen, 18 Januar, Freitag

    Zeit Temperatur Niederschläge Wind Luftdruck Luftfeuchtigkeit
    00:00 -1°C° 0 mm 4 m/S 751 mmHg 68%
    01:00 0°C° 0 mm 3 m/S 751 mmHg 71%
    02:00 0°C° 0 mm 3 m/S 752 mmHg 74%
    03:00 -1°C° 0 mm 2 m/S 753 mmHg 77%
    04:00 -1°C° 0 mm 2 m/S 753 mmHg 79%
    05:00 +1°C° 0 mm 1 m/S 754 mmHg 80%
    06:00 0°C° 0 mm 1 m/S 754 mmHg 82%
    07:00 +1°C° 0 mm 1 m/S 755 mmHg 80%
    08:00 +1°C° 0 mm 1 m/S 755 mmHg 78%
    09:00 +1°C° 0 mm 1 m/S 756 mmHg 76%
    10:00 +2°C° 0 mm 1 m/S 756 mmHg 71%
    11:00 +2°C° 0 mm 2 m/S 756 mmHg 66%
    12:00 +3°C° 0 mm 2 m/S 756 mmHg 61%
    13:00 +4°C° 0 mm 1 m/S 756 mmHg 61%
    14:00 +4°C° 0 mm 1 m/S 756 mmHg 62%
    15:00 +4°C° 0 mm 1 m/S 756 mmHg 62%
    16:00 +3°C° 0 mm 1 m/S 756 mmHg 64%
    17:00 +2°C° 0 mm 1 m/S 756 mmHg 66%
    18:00 +2°C° 0 mm 1 m/S 757 mmHg 68%
    19:00 +2°C° 0 mm 1 m/S 757 mmHg 68%
    20:00 +1°C° 0 mm 1 m/S 757 mmHg 68%
    21:00 +1°C° 0 mm 1 m/S 757 mmHg 68%
    22:00 +1°C° 0 mm 1 m/S 757 mmHg 69%
    23:00 +1°C° 0 mm 1 m/S 757 mmHg 70%

    übermorgen, 19 Januar, Samstag

    Zeit Temperatur Niederschläge Wind Luftdruck Luftfeuchtigkeit
    00:00 -1°C° 0 mm 2 m/S 756 mmHg 70%
    01:00 -1°C° 0 mm 2 m/S 756 mmHg 71%
    02:00 -1°C° 0 mm 2 m/S 756 mmHg 71%
    03:00 -2°C° 0 mm 2 m/S 756 mmHg 71%
    04:00 -2°C° 0 mm 2 m/S 756 mmHg 70%
    05:00 -2°C° 0 mm 2 m/S 756 mmHg 69%
    06:00 -2°C° 0 mm 2 m/S 755 mmHg 69%
    07:00 -1°C° 0 mm 2 m/S 755 mmHg 66%
    08:00 -1°C° 0 mm 3 m/S 755 mmHg 63%
    09:00 -1°C° 0 mm 3 m/S 755 mmHg 60%
    10:00 0°C° 0 mm 3 m/S 754 mmHg 55%
    11:00 +1°C° 0 mm 3 m/S 754 mmHg 50%
    12:00 +2°C° 0 mm 3 m/S 754 mmHg 45%
    13:00 +2°C° 0 mm 2 m/S 753 mmHg 45%
    14:00 +2°C° 0 mm 2 m/S 753 mmHg 46%
    15:00 +3°C° 0 mm 1 m/S 753 mmHg 47%
    16:00 +1°C° 0 mm 2 m/S 753 mmHg 50%
    17:00 +1°C° 0 mm 2 m/S 753 mmHg 53%
    18:00 -1°C° 0 mm 2 m/S 753 mmHg 55%
    19:00 -1°C° 0 mm 2 m/S 753 mmHg 55%
    20:00 -2°C° 0 mm 2 m/S 753 mmHg 54%
    21:00 -2°C° 0 mm 2 m/S 753 mmHg 53%
    22:00 -2°C° 0 mm 2 m/S 753 mmHg 54%
    23:00 -2°C° 0 mm 2 m/S 753 mmHg 55%

    20 Januar, Sonntag

    Zeit Temperatur Niederschläge Wind Luftdruck Luftfeuchtigkeit
    00:00 0°C° 0 mm 1 m/S 753 mmHg 55%
    01:00 0°C° 0 mm 1 m/S 753 mmHg 56%
    02:00 0°C° 0 mm 1 m/S 753 mmHg 57%
    03:00 -2°C° 0 mm 2 m/S 753 mmHg 57%
    04:00 0°C° 0 mm 1 m/S 753 mmHg 58%
    05:00 0°C° 0 mm 1 m/S 753 mmHg 58%
    06:00 -1°C° 0 mm 1 m/S 753 mmHg 58%
    07:00 0°C° 0 mm 1 m/S 754 mmHg 57%
    08:00 0°C° 0 mm 1 m/S 754 mmHg 56%
    09:00 0°C° 0 mm 1 m/S 754 mmHg 55%
    10:00 +1°C° 0 mm 1 m/S 754 mmHg 53%
    11:00 +2°C° 0 mm 1 m/S 754 mmHg 50%
    12:00 +3°C° 0 mm 1 m/S 754 mmHg 47%
    13:00 +3°C° 0 mm 1 m/S 755 mmHg 50%
    14:00 +1°C° 0 mm 0 m/S 755 mmHg 52%
    15:00 +1°C° 0 mm 0 m/S 755 mmHg 54%
    16:00 0°C° 0 mm 0 m/S 755 mmHg 57%
    17:00 +1°C° 0 mm 1 m/S 756 mmHg 60%
    18:00 0°C° 0 mm 1 m/S 756 mmHg 63%
    19:00 0°C° 0 mm 1 m/S 756 mmHg 65%
    20:00 0°C° 0 mm 1 m/S 756 mmHg 66%
    21:00 0°C° 0 mm 1 m/S 757 mmHg 68%
    22:00 0°C° 0 mm 1 m/S 757 mmHg 67%
    23:00 -2°C° 0 mm 2 m/S 756 mmHg 67%

    21 Januar, Montag

    Zeit Temperatur Niederschläge Wind Luftdruck Luftfeuchtigkeit
    00:00 -3°C° 0 mm 2 m/S 756 mmHg 66%
    01:00 -3°C° 0 mm 2 m/S 756 mmHg 65%
    02:00 -3°C° 0 mm 2 m/S 756 mmHg 64%
    03:00 -3°C° 0 mm 2 m/S 755 mmHg 63%
    04:00 -3°C° 0.1 mm 2 m/S 755 mmHg 66%
    05:00 -2°C° 0.1 mm 3 m/S 755 mmHg 70%
    06:00 -2°C° 0.1 mm 3 m/S 755 mmHg 73%
    07:00 -2°C° 0.9 mm 2 m/S 755 mmHg 80%
    08:00 -2°C° 0.9 mm 2 m/S 755 mmHg 87%
    09:00 -2°C° 0.9 mm 2 m/S 755 mmHg 94%
    10:00 -1°C° 0.5 mm 2 m/S 755 mmHg 94%
    11:00 +1°C° 0.5 mm 2 m/S 755 mmHg 93%
    12:00 +1°C° 0.5 mm 3 m/S 754 mmHg 93%
    13:00 +2°C° 0.1 mm 2 m/S 754 mmHg 93%
    14:00 +2°C° 0.1 mm 2 m/S 754 mmHg 93%
    15:00 +2°C° 0.1 mm 2 m/S 754 mmHg 93%
    16:00 +1°C° 0 mm 2 m/S 754 mmHg 93%
    17:00 +1°C° 0 mm 2 m/S 754 mmHg 93%
    18:00 -1°C° 0 mm 2 m/S 754 mmHg 94%
    19:00 -1°C° 0 mm 2 m/S 754 mmHg 94%
    20:00 -1°C° 0 mm 2 m/S 754 mmHg 94%
    21:00 -2°C° 0 mm 2 m/S 754 mmHg 94%
    22:00 -2°C° 0 mm 2 m/S 753 mmHg 95%
    23:00 -2°C° 0 mm 2 m/S 753 mmHg 95%

    22 Januar, Dienstag

    Zeit Temperatur Niederschläge Wind Luftdruck Luftfeuchtigkeit
    00:00 -2°C° 0 mm 2 m/S 752 mmHg 96%
    01:00 -2°C° 0 mm 3 m/S 751 mmHg 94%
    02:00 -2°C° 0 mm 3 m/S 751 mmHg 92%
    03:00 -2°C° 0 mm 3 m/S 750 mmHg 90%
    04:00 -3°C° 0 mm 4 m/S 749 mmHg 88%
    05:00 -3°C° 0 mm 4 m/S 748 mmHg 85%
    06:00 -3°C° 0 mm 4 m/S 747 mmHg 83%
    07:00 -4°C° 0 mm 5 m/S 747 mmHg 81%
    08:00 -2°C° 0 mm 5 m/S 746 mmHg 79%
    09:00 -2°C° 0 mm 5 m/S 745 mmHg 77%
    10:00 -2°C° 0 mm 5 m/S 745 mmHg 75%
    11:00 -1°C° 0 mm 5 m/S 744 mmHg 72%
    12:00 0°C° 0 mm 5 m/S 743 mmHg 69%
    13:00 -1°C° 0 mm 5 m/S 743 mmHg 69%
    14:00 -1°C° 0 mm 4 m/S 742 mmHg 69%
    15:00 -1°C° 0 mm 4 m/S 741 mmHg 69%
    16:00 -1°C° 0 mm 4 m/S 741 mmHg 71%
    17:00 0°C° 0 mm 3 m/S 741 mmHg 73%
    18:00 -1°C° 0 mm 3 m/S 741 mmHg 75%
    19:00 -1°C° 0 mm 3 m/S 741 mmHg 75%
    20:00 -1°C° 0 mm 3 m/S 741 mmHg 76%
    21:00 -1°C° 0 mm 3 m/S 741 mmHg 76%
    22:00 -1°C° 0 mm 3 m/S 741 mmHg 77%
    23:00 -1°C° 0 mm 3 m/S 741 mmHg 77%
    Mehr zeigen